�������l�o���
Date,Time,MP-1(��Sv/h),MP-2(��Sv/h),MP-3(��Sv/h),MP-4(��Sv/h),MP-5(��Sv/h),MP-6(��Sv/h),MP-7(��Sv/h),MP-8(��Sv/h),����,����(m/s),���J
2022/07/12,00:00,0.581,0.842,0.539,1.013,0.724,0.343,0.592,0.556,�k,1.2,�L
2022/07/12,00:10,0.581,0.844,0.539,1.013,0.725,0.341,0.592,0.558,�k,1.5,��
2022/07/12,00:20,0.582,0.843,0.540,1.012,0.724,0.339,0.593,0.557,�k,1.7,�L
2022/07/12,00:30,0.581,0.842,0.539,1.013,0.725,0.340,0.593,0.558,�k,1.4,�L
2022/07/12,00:40,0.583,0.843,0.539,1.010,0.726,0.339,0.594,0.557,�k,1.4,��
2022/07/12,00:50,0.583,0.841,0.539,1.013,0.725,0.341,0.595,0.558,�k,1.4,��
2022/07/12,01:00,0.582,0.844,0.540,1.012,0.725,0.342,0.592,0.557,�k�k��,1.5,��
2022/07/12,01:10,0.582,0.842,0.539,1.013,0.728,0.339,0.594,0.558,�k�k��,1.2,��
2022/07/12,01:20,0.583,0.844,0.539,1.011,0.724,0.340,0.593,0.557,�k�k��,1.2,��
2022/07/12,01:30,0.581,0.841,0.540,1.013,0.727,0.341,0.593,0.557,�k��,1.2,��
2022/07/12,01:40,0.584,0.843,0.539,1.011,0.724,0.340,0.592,0.558,�k��,0.6,�L
2022/07/12,01:50,0.582,0.843,0.539,1.014,0.724,0.340,0.593,0.559,�k�k��,0.8,�L
2022/07/12,02:00,0.583,0.842,0.537,1.013,0.726,0.342,0.593,0.557,�k,0.6,�L
2022/07/12,02:10,0.581,0.842,0.538,1.013,0.726,0.341,0.592,0.558,�k,1.4,�L
2022/07/12,02:20,0.580,0.839,0.537,1.012,0.724,0.341,0.593,0.558,�k�k��,1.1,�L
2022/07/12,02:30,0.578,0.836,0.536,1.012,0.723,0.340,0.594,0.559,�k,2.3,�L
2022/07/12,02:40,0.576,0.835,0.535,1.010,0.722,0.340,0.593,0.558,�k,1.1,�L
2022/07/12,02:50,0.577,0.835,0.533,1.010,0.722,0.341,0.593,0.557,�k,1.7,�L
2022/07/12,03:00,0.577,0.833,0.534,1.008,0.722,0.339,0.593,0.557,�k,1.9,�L
2022/07/12,03:10,0.577,0.831,0.533,1.011,0.721,0.338,0.592,0.558,�k�k��,1.4,��
2022/07/12,03:20,0.576,0.832,0.531,1.010,0.719,0.340,0.593,0.559,�k�k��,1.7,��
2022/07/12,03:30,0.578,0.831,0.532,1.008,0.718,0.341,0.592,0.557,�k�k��,1.7,��
2022/07/12,03:40,0.577,0.831,0.533,1.008,0.720,0.340,0.593,0.557,�k�k��,1.5,��
2022/07/12,03:50,0.577,0.833,0.535,1.009,0.721,0.341,0.594,0.558,�k,0.9,��
2022/07/12,04:00,0.578,0.833,0.532,1.010,0.718,0.339,0.593,0.557,�k,1.4,��
2022/07/12,04:10,0.579,0.833,0.533,1.010,0.718,0.341,0.593,0.559,�k,1.5,�L
2022/07/12,04:20,0.577,0.834,0.534,1.009,0.722,0.339,0.594,0.558,�k,1.4,�L
2022/07/12,04:30,0.576,0.833,0.532,1.010,0.720,0.340,0.594,0.558,�k�k��,0.8,�L
2022/07/12,04:40,0.575,0.833,0.532,1.007,0.718,0.340,0.592,0.558,�k,1.4,�L
2022/07/12,04:50,0.576,0.831,0.533,1.008,0.718,0.341,0.591,0.556,�k�k��,0.9,��
2022/07/12,05:00,0.573,0.831,0.533,1.008,0.717,0.339,0.594,0.556,�k,0.9,��
2022/07/12,05:10,0.575,0.832,0.533,1.009,0.717,0.340,0.592,0.555,�k��,0.6,��
2022/07/12,05:20,0.575,0.832,0.533,1.009,0.718,0.338,0.592,0.557,�k��,1.2,��
2022/07/12,05:30,0.577,0.832,0.531,1.009,0.716,0.340,0.593,0.558,�k��,1.2,��
2022/07/12,05:40,0.576,0.831,0.533,1.010,0.719,0.338,0.592,0.556,�k��,1.4,�L
2022/07/12,05:50,0.576,0.833,0.534,1.009,0.718,0.339,0.592,0.556,���k��,1.9,�L
2022/07/12,06:00,0.575,0.831,0.529,1.008,0.717,0.339,0.591,0.557,���k��,1.7,�L
2022/07/12,06:10,0.576,0.830,0.532,1.009,0.715,0.340,0.591,0.556,���k��,1.7,�L
2022/07/12,06:20,0.575,0.830,0.532,1.008,0.718,0.338,0.590,0.556,�k�k��,0.9,��
2022/07/12,06:30,0.576,0.830,0.533,1.009,0.719,0.338,0.594,0.555,�k��,0.8,��
2022/07/12,06:40,0.575,0.830,0.532,1.008,0.718,0.339,0.592,0.555,���k��,1.1,��
2022/07/12,06:50,0.576,0.831,0.532,1.008,0.717,0.340,0.592,0.555,�k�k��,0.9,��
2022/07/12,07:00,0.577,0.831,0.532,1.009,0.716,0.340,0.594,0.556,�k�k��,0.6,��
2022/07/12,07:10,0.578,0.830,0.532,1.008,0.718,0.339,0.593,0.555,�k��,1.2,��
2022/07/12,07:20,0.576,0.829,0.532,1.007,0.717,0.339,0.593,0.555,�k�k��,1.7,��
2022/07/12,07:30,0.576,0.828,0.530,1.007,0.719,0.340,0.594,0.556,�k,0.9,��
2022/07/12,07:40,0.575,0.828,0.531,1.005,0.719,0.338,0.592,0.554,�k��,1.4,��
2022/07/12,07:50,0.575,0.827,0.531,1.008,0.717,0.339,0.592,0.555,�k��,1.9,��
2022/07/12,08:00,0.576,0.827,0.533,1.008,0.719,0.339,0.592,0.556,�k��,1.1,��
2022/07/12,08:10,0.576,0.826,0.531,1.008,0.719,0.337,0.593,0.555,�k,1.5,��
2022/07/12,08:20,0.576,0.827,0.530,1.008,0.718,0.339,0.594,0.554,�k�k��,1.2,��
2022/07/12,08:30,0.576,0.826,0.532,1.009,0.718,0.339,0.593,0.554,�k�k��,1.5,��
2022/07/12,08:40,0.576,0.827,0.531,1.009,0.719,0.339,0.592,0.555,���k��,1.4,��
2022/07/12,08:50,0.575,0.828,0.532,1.008,0.718,0.338,0.591,0.554,�k��,2.0,��
2022/07/12,09:00,0.576,0.830,0.530,1.007,0.719,0.339,0.592,0.554,�k��,2.0,��
2022/07/12,09:10,0.576,0.828,0.531,1.008,0.719,0.340,0.591,0.555,�k��,2.0,��
2022/07/12,09:20,0.576,0.829,0.532,1.008,0.718,0.339,0.592,0.554,�k��,1.5,��
2022/07/12,09:30,0.577,0.830,0.531,1.006,0.719,0.341,0.593,0.554,�k��,2.0,��
2022/07/12,09:40,0.577,0.828,0.530,1.008,0.717,0.340,0.592,0.555,�k��,2.3,��
2022/07/12,09:50,0.576,0.832,0.532,1.006,0.717,0.339,0.591,0.555,�k��,2.8,��
2022/07/12,10:00,0.577,0.829,0.533,1.007,0.717,0.340,0.592,0.556,�k��,2.3,��
2022/07/12,10:10,0.576,0.832,0.531,1.007,0.720,0.339,0.592,0.553,�k��,1.9,��
2022/07/12,10:20,0.579,0.830,0.533,1.007,0.719,0.339,0.593,0.555,�k��,2.0,��
2022/07/12,10:30,0.579,0.832,0.534,1.008,0.719,0.338,0.594,0.557,���k��,1.7,��
2022/07/12,10:40,0.579,0.832,0.531,1.009,0.718,0.340,0.593,0.557,-,CALM,��
2022/07/12,10:50,0.578,0.829,0.533,1.007,0.719,0.340,0.593,0.556,��,1.4,��
2022/07/12,11:00,0.578,0.831,0.533,1.008,0.718,0.341,0.594,0.556,�k,1.7,��
2022/07/12,11:10,0.580,0.832,0.534,1.008,0.720,0.342,0.594,0.555,�k��,1.2,��
2022/07/12,11:20,0.578,0.833,0.534,1.008,0.720,0.340,0.593,0.555,�k�k��,1.7,��
2022/07/12,11:30,0.578,0.832,0.532,1.008,0.720,0.341,0.595,0.555,�k�k��,1.2,��
2022/07/12,11:40,0.578,0.833,0.533,1.011,0.719,0.339,0.593,0.555,�k��,0.8,��
2022/07/12,11:50,0.579,0.836,0.533,1.010,0.721,0.340,0.594,0.555,�k��,1.4,�L
2022/07/12,12:00,0.580,0.836,0.533,1.010,0.722,0.340,0.594,0.556,�k�k��,2.5,�L
2022/07/12,12:10,0.579,0.835,0.535,1.009,0.720,0.340,0.594,0.555,�k��,1.9,��
2022/07/12,12:20,0.580,0.834,0.537,1.011,0.722,0.339,0.593,0.555,�k��,2.5,��
2022/07/12,12:30,0.580,0.838,0.538,1.008,0.721,0.339,0.595,0.556,�k��,2.5,��
2022/07/12,12:40,0.580,0.835,0.536,1.008,0.722,0.340,0.593,0.555,�k�k��,2.0,��
2022/07/12,12:50,0.579,0.837,0.537,1.009,0.722,0.341,0.595,0.556,�k�k��,1.4,��
2022/07/12,13:00,0.582,0.838,0.537,1.007,0.721,0.341,0.595,0.556,�k��,2.0,��
2022/07/12,13:10,0.583,0.837,0.537,1.009,0.723,0.342,0.595,0.556,�k��,2.6,��
2022/07/12,13:20,0.582,0.837,0.536,1.009,0.721,0.340,0.594,0.556,���k��,2.5,��
2022/07/12,13:30,0.579,0.836,0.537,1.008,0.722,0.341,0.595,0.555,�k��,1.9,��
2022/07/12,13:40,0.582,0.834,0.537,1.010,0.724,0.341,0.594,0.555,�k��,1.9,��
2022/07/12,13:50,0.581,0.836,0.536,1.008,0.722,0.341,0.594,0.556,�k��,1.4,��
2022/07/12,14:00,0.581,0.839,0.536,1.010,0.722,0.342,0.596,0.557,�k��,2.2,��
2022/07/12,14:10,0.581,0.838,0.536,1.008,0.722,0.341,0.595,0.556,���k��,2.2,��
2022/07/12,14:20,0.581,0.836,0.536,1.008,0.724,0.340,0.594,0.557,���k��,2.5,��
2022/07/12,14:30,0.581,0.837,0.537,1.007,0.724,0.339,0.595,0.556,���k��,2.3,��
2022/07/12,14:40,0.581,0.836,0.537,1.009,0.721,0.341,0.595,0.556,��,1.4,�L
2022/07/12,14:50,0.581,0.836,0.534,1.010,0.724,0.340,0.592,0.556,���쓌,1.7,�L
2022/07/12,15:00,0.582,0.834,0.537,1.010,0.724,0.341,0.592,0.555,���쓌,1.1,�L
2022/07/12,15:10,0.581,0.833,0.535,1.011,0.723,0.343,0.595,0.555,�k��,0.8,�L
2022/07/12,15:20,0.579,0.833,0.535,1.012,0.721,0.340,0.593,0.555,-,CALM,�L
2022/07/12,15:30,0.581,0.832,0.536,1.011,0.722,0.343,0.594,0.555,��,0.8,�L
2022/07/12,15:40,0.579,0.832,0.535,1.010,0.722,0.342,0.594,0.556,��,1.4,�L
2022/07/12,15:50,0.582,0.833,0.537,1.010,0.722,0.340,0.594,0.555,�k�k��,1.7,�L
2022/07/12,16:00,0.586,0.834,0.536,1.011,0.722,0.343,0.593,0.556,�k�k��,1.7,�L
2022/07/12,16:10,0.587,0.834,0.535,1.012,0.721,0.342,0.593,0.556,�k,1.5,�L
2022/07/12,16:20,0.586,0.834,0.534,1.011,0.720,0.341,0.593,0.556,�k��,1.4,�L
2022/07/12,16:30,0.586,0.836,0.535,1.012,0.722,0.342,0.593,0.555,�k�k��,1.2,�L
2022/07/12,16:40,0.588,0.835,0.534,1.010,0.721,0.342,0.592,0.555,�k��,1.7,�L
2022/07/12,16:50,0.590,0.834,0.534,1.012,0.722,0.342,0.593,0.558,�k��,1.9,�L
2022/07/12,17:00,0.588,0.835,0.533,1.008,0.720,0.341,0.593,0.556,�k,1.2,�L
2022/07/12,17:10,0.589,0.833,0.535,1.006,0.721,0.340,0.592,0.554,�k�k��,1.4,�L
2022/07/12,17:20,0.593,0.835,0.535,1.011,0.720,0.340,0.594,0.556,�k,1.4,��
2022/07/12,17:30,0.594,0.833,0.533,1.010,0.719,0.341,0.591,0.555,�k�k��,1.2,��
2022/07/12,17:40,0.596,0.834,0.534,1.007,0.718,0.341,0.591,0.556,�k�k��,1.4,��
2022/07/12,17:50,0.594,0.835,0.535,1.009,0.718,0.341,0.594,0.556,�k,1.7,��
2022/07/12,18:00,0.594,0.834,0.535,1.009,0.719,0.340,0.592,0.555,�k,2.0,��
2022/07/12,18:10,0.592,0.835,0.536,1.010,0.717,0.341,0.591,0.555,�k�k��,2.0,��
2022/07/12,18:20,0.592,0.834,0.535,1.009,0.720,0.340,0.591,0.555,�k�k��,1.5,��
2022/07/12,18:30,0.593,0.834,0.534,1.009,0.719,0.339,0.593,0.555,�k�k��,1.2,��
2022/07/12,18:40,0.594,0.834,0.534,1.010,0.718,0.339,0.592,0.555,�k�k��,1.5,��
2022/07/12,18:50,0.595,0.833,0.534,1.009,0.720,0.340,0.592,0.554,�k�k��,1.7,��
2022/07/12,19:00,0.594,0.833,0.532,1.010,0.719,0.340,0.593,0.554,�k�k��,1.7,�L
2022/07/12,19:10,0.592,0.835,0.532,1.010,0.720,0.340,0.592,0.555,�k,1.2,�L
2022/07/12,19:20,0.593,0.834,0.532,1.009,0.719,0.340,0.591,0.554,�k,1.7,�L
2022/07/12,19:30,0.593,0.835,0.532,1.008,0.720,0.340,0.592,0.555,�k,2.3,�L
2022/07/12,19:40,0.595,0.835,0.533,1.010,0.718,0.340,0.594,0.555,�k,3.0,�L
2022/07/12,19:50,0.594,0.834,0.533,1.009,0.720,0.340,0.593,0.555,�k,2.9,��
2022/07/12,20:00,0.591,0.836,0.533,1.010,0.719,0.341,0.592,0.553,�k,2.6,�L
2022/07/12,20:10,0.592,0.833,0.535,1.007,0.719,0.339,0.591,0.556,�k�k��,2.6,�L
2022/07/12,20:20,0.590,0.832,0.532,1.007,0.717,0.339,0.593,0.555,�k�k��,2.5,�L
2022/07/12,20:30,0.592,0.828,0.531,1.006,0.715,0.340,0.590,0.554,�k�k��,3.1,�L
2022/07/12,20:40,0.588,0.828,0.531,1.005,0.716,0.339,0.590,0.553,�k�k��,2.6,�L
2022/07/12,20:50,0.587,0.827,0.529,1.006,0.714,0.338,0.589,0.552,�k�k��,2.0,�L
2022/07/12,21:00,0.589,0.827,0.528,1.005,0.712,0.338,0.588,0.551,�k�k��,1.9,�L
2022/07/12,21:10,0.587,0.827,0.528,1.008,0.713,0.338,0.587,0.551,�k,1.4,�L
2022/07/12,21:20,0.588,0.825,0.529,1.005,0.710,0.338,0.590,0.551,�k,1.4,�L
2022/07/12,21:30,0.588,0.827,0.528,1.006,0.714,0.339,0.589,0.553,�k�k��,0.6,�L
2022/07/12,21:40,0.589,0.827,0.530,1.006,0.711,0.338,0.589,0.553,�k�k��,1.7,�L
2022/07/12,21:50,0.589,0.828,0.531,1.006,0.713,0.339,0.588,0.553,�k,1.2,�L
2022/07/12,22:00,0.588,0.828,0.529,1.006,0.712,0.338,0.589,0.553,�k,1.4,��
2022/07/12,22:10,0.590,0.825,0.528,1.007,0.712,0.340,0.589,0.553,�k,1.5,��
2022/07/12,22:20,0.589,0.825,0.528,1.006,0.713,0.338,0.590,0.554,�k,2.0,��
2022/07/12,22:30,0.589,0.827,0.529,1.006,0.711,0.337,0.590,0.553,�k�k��,1.5,��
2022/07/12,22:40,0.589,0.825,0.527,1.004,0.713,0.339,0.587,0.555,�k�k��,1.4,�L
2022/07/12,22:50,0.590,0.826,0.530,1.004,0.712,0.339,0.589,0.555,�k,1.7,�L
2022/07/12,23:00,0.589,0.826,0.530,1.006,0.713,0.338,0.590,0.554,�k�k��,1.7,�L
2022/07/12,23:10,0.589,0.828,0.530,1.003,0.713,0.339,0.590,0.556,�k��,1.7,�L
2022/07/12,23:20,0.589,0.829,0.528,1.006,0.712,0.340,0.589,0.553,�k��,1.5,�L
2022/07/12,23:30,0.590,0.828,0.529,1.006,0.712,0.338,0.590,0.554,�k�k��,1.7,�L
2022/07/12,23:40,0.587,0.826,0.530,1.004,0.713,0.338,0.590,0.554,�k�k��,2.3,�L
2022/07/12,23:50,0.588,0.825,0.530,1.005,0.713,0.339,0.590,0.553,�k,2.0,�L
